Location: Kellogg
(38.0159°N, 90.0546°W)
Time: 08:00:45
(UTC+00:00)

Altair - Pass Details

Date: 15 September 2024
Orbit: 1501 x 1682 km, 47.2° (Epoch: 07 October)

Event Time Altitude Azimuth Distance (km) Brightness Sun altitude
Rises 13:45:13 0° 299° (WNW) 4,937 9.6 23.1°
Reaches altitude 10° 13:48:24 10° 301° (WNW) 3,949 9.2 23.7°
Maximum altitude 13:58:38 79° 28° (NNE) 1,700 8.2 25.6°
Drops below altitude 10° 14:08:37 10° 115° (ESE) 3,864 11.4 27.5°
Sets 14:11:42 0° 117° (ESE) 4,827 11.4 28.1°
